,

(GMT )
Rae Point

Weather History for CZRP - August, 2013

Change the Weather History Date:

Wednesday, August 7, 2013

  Actual Average Record
Temperature  
Mean Temperature 37 °F -  
Max Temperature 43 °F - - ()
Min Temperature 31 °F - - ()
Degree Days  
Heating Degree Days 28    
Moisture  
Dew Point 36 °F    
Average Humidity 94    
Maximum Humidity 100    
Minimum Humidity 89    
Precipitation  
Precipitation 0.00 in - - ()
Sea Level Pressure  
Sea Level Pressure 30.23 in    
Wind  
Wind Speed 13 mph ()    
Max Wind Speed 21 mph    
Max Gust Speed -    
T = Trace of Precipitation, MM = Missing Value Source: Averaged Metar Reports

Daily Weather History Graph

Daily Weather History Graph

Search for Another Location

Airport or City:

Trip Planner

Search our weather history database for the weather conditions in past years. The results will help you decide how hot, cold, wet, or windy it might be!

Date:

Astronomy

Dec. 31, 1969 Rise Set
Actual Time Sun does not set Sun does not set
Civil Twilight Sun does not set Sun does not set
Nautical Twilight Sun does not set Sun does not set
Astronomical Twilight Sun does not set Sun does not set
Moon 4:42 AM MDT (8/7) 9:47 PM MDT (8/7)
Length of Visible Light 24h 00m
Length of Day
24h 00m
New Moon, 1% of the Moon is Illuminated
Aug 7
New Moon
Aug 14
First Quarter
Aug 20
Full
Aug 28
Last Quarter
Sep 5
New

Hourly Weather History & Observations

Time (MDT) Temp. Windchill Dew Point Humidity Pressure Visibility Wind Dir Wind Speed Gust Speed Precip Events Conditions
3:00 AM 37.0 °F 34.5 °F 36.7 °F 99% 30.13 in - NNE 3.5 mph - N/A   Unknown
4:00 AM 43.0 °F 36.8 °F 42.6 °F 99% 30.14 in - WNW 11.5 mph - N/A   Unknown
5:00 AM 42.6 °F 34.9 °F 40.8 °F 93% 30.15 in - WNW 16.1 mph - N/A   Unknown
6:00 AM 42 °F - 40 °F 89% 30.16 in - WNW 19.6 mph - -  
6:00 AM 41.9 °F 33.1 °F 39.9 °F 93% 30.16 in - WNW 19.6 mph - N/A   Unknown
7:00 AM 41.4 °F 33.3 °F 39.7 °F 94% 30.19 in - WNW 16.1 mph - N/A   Unknown
8:00 AM 41.7 °F 34.1 °F 39.6 °F 92% 30.20 in - WNW 15.0 mph - N/A   Unknown
9:00 AM 41.9 °F 33.7 °F 39.0 °F 90% 30.20 in - NNW 17.3 mph - N/A   Unknown
10:00 AM 40.8 °F 31.7 °F 37.9 °F 89% 30.21 in - NNW 19.6 mph - N/A   Unknown
11:00 AM 40.3 °F 32.2 °F 37.2 °F 89% 30.22 in - NNW 15.0 mph - N/A   Unknown
12:00 PM 39 °F - 37 °F 91% 30.23 in - North 15.0 mph - -  
12:00 PM 39.2 °F 30.8 °F 37.2 °F 93% 30.23 in - North 15.0 mph - N/A   Unknown
1:00 PM 38.5 °F 28.6 °F 37.0 °F 95% 30.24 in - North 19.6 mph - N/A   Unknown
2:00 PM 37.8 °F 27.4 °F 35.6 °F 92% 30.26 in - North 20.7 mph - N/A   Unknown
3:00 PM 37.0 °F 27.0 °F 35.2 °F 93% 30.26 in - North 18.4 mph - N/A   Unknown
4:00 PM 36.7 °F 27.6 °F 35.1 °F 94% 30.27 in - North 15.0 mph - N/A   Unknown
5:00 PM 34.3 °F 23.5 °F 33.8 °F 98% 30.29 in - North 18.4 mph - N/A   Unknown
6:00 PM 33 °F - 33 °F 100% 30.30 in - North 16.1 mph - -  
6:00 PM 33.4 °F 23.1 °F 33.1 °F 99% 30.30 in - North 16.1 mph - N/A   Unknown
7:00 PM 31.3 °F 20.7 °F 31.6 °F 100% 30.30 in - North 15.0 mph - N/A   Unknown
8:00 PM 31.3 °F 22.1 °F 32.0 °F 100% 30.30 in - North 11.5 mph - N/A   Unknown
9:00 PM 33.3 °F 25.7 °F 31.6 °F 94% 30.30 in - North 9.2 mph - N/A   Unknown
10:00 PM 34.2 °F 27.5 °F 31.6 °F 90% 30.30 in - North 8.1 mph - N/A   Unknown
11:00 PM 31.6 °F 23.7 °F 31.3 °F 99% 30.30 in - North 9.2 mph - N/A   Unknown